Regional Weather Roundup
Issued by NWS

Home | Current Version | Previous Version | Text Only | Print | Product List | Glossary Off
Versions: 1 2 3 4 5 6 7 8 9 10 11 12 13 14 15 16 17 18 19 20 21 22 23 24 25 26 27 28 29 30 31 32 33 34 35 36 37 38 39 40 41 42 43 44 45 46 47 48 49 50

000
ASUS43 KLOT 231604
RWRIL

ILLINOIS REGIONAL WEATHER ROUNDUP
NATIONAL WEATHER SERVICE CHICAGO/ROMEOVILLE IL
1100 AM CDT WED MAY 23 2018

NOTE: "FAIR" INDICATES FEW OR NO CLOUDS BELOW 12,000 FEET WITH NO
SIGNIFICANT WEATHER AND/OR OBSTRUCTIONS TO VISIBILITY.

* THESE STATIONS ARE NOT UNDER NWS QUALITY CONTROL. THEY ALSO MAY NOT
  REPORT WEATHER SUCH AS PRECIPITATION OR FOG.

ILZ001-002-007-009-015-016-024-231700-
NORTHWEST ILLINOIS

CITY           SKY/WX    TMP DP  RH WIND       PRES   REMARKS
MOLINE           N/A     77  63  61 E5        30.18S
STERLING*      FAIR      71  61  70 MISG        N/A
SAVANNA*       FAIR      72  63  73 W6        30.20S
$$

ILZ003-004-008-010-011-017-018-231700-
NORTH CENTRAL ILLINOIS

CITY           SKY/WX    TMP DP  RH WIND       PRES   REMARKS
ROCKFORD       FAIR      70  58  65 S6        30.22S
FREEPORT*      FAIR      69  60  73 S5        30.23S
ROCHELLE*      FAIR      70  59  69 S6        30.22S
DE KALB*       FAIR      70  57  65 SE5       30.23R
PERU*          FAIR      72  60  67 S3        30.22R
$$

ILZ005-006-012>014-019>023-231700-
NORTHEAST ILLINOIS

CITY           SKY/WX    TMP DP  RH WIND       PRES   REMARKS
CHICAGO-OHARE  FAIR      71  57  61 S3        30.20S
CHICAGO-MIDWAY FAIR      71  57  61 CALM      30.20F
AURORA         FAIR      72  60  66 S6        30.21S
LANSING*       FAIR      70  62  75 E5        30.21S
JOLIET*        FAIR      73  60  64 E3        30.21S
WAUKEGAN       FAIR      71  59  65 N5        30.20S
DUPAGE AIRPORT FAIR      71  57  61 CALM      30.20S
KANKAKEE*      FAIR      73  57  57 NE6       30.21S
WHEELING       FAIR      71  56  58 CALM      30.21F
MORRIS*        FAIR      71  60  67 CALM      30.20S
ROMEOVILLE*    FAIR      71  58  64 E3        30.21S
NORTHERLY ISL    N/A     60  54  80 E2          N/A
$$

LMZ740>746-231700-
SOUTHERN LAKE MICHIGAN

STATION/POSITION SKY/WX   TEMP    WIND        PRES    VSBY  WAVE
                          AIR SEA DIR/SP/G                  HT/PER
                          (F)     (DEG/KT/KT) (MB)    (MI)  (FT/S)
SOUTHERN BUOY              41 39  180/  4/  4 1023.7R         0
WILMETTE HARBOR            55 49  100/  4/  4   N/A           0
HARRISON CRIB              59     100/  3/  3   N/A
BURNHAM HARBOR             60      90/  2/  3   N/A
CALUMET HARBOR             59      60/  3/  4 1022.6F
BURNS HARBOR               57        CALM     1023.7S
MICHIGAN CITY              52      20/  5/  6   N/A
MICHIGAN CITY 6N           51 56   60/  4/  4   N/A           0
ST. JOSEPH                 51 56  300/  2/  4 1024.0S         0
$$

ILZ025>027-034>036-040-047-049-050-058-095>099-231700-
WEST-CENTRAL ILLINOIS

CITY           SKY/WX    TMP DP  RH WIND       PRES   REMARKS
QUINCY         CLOUDY    79  63  57 SE8       30.17R HX  80
GALESBURG*     FAIR      75  62  64 SE3       30.20S
MACOMB*        MOSUNNY   75  62  65 SE6       30.21S
JACKSONVILLE*  MOSUNNY   76  62  61 E5        30.18S
PITTSFIELD*    SUNNY     78  65  65 E8        30.19R HX  80
$$

ILZ028>032-037-038-041>044-048-051>054-059>061-231700-
CENTRAL ILLINOIS

CITY           SKY/WX    TMP DP  RH WIND       PRES   REMARKS
PONTIAC        FAIR      72  59  62 NE5       30.21S
BLOOMINGTON    FAIR      75  54  47 VRB5      30.20F
DECATUR        FAIR      77  57  50 N5        30.18S
PEORIA         FAIR      75  62  64 E6        30.19S
LACON*         FAIR      73  58  60 E5        30.20S
LINCOLN*       FAIR      79  60  53 NE3       30.18S HX  80
SPRINGFIELD    FAIR      80  62  54 E7        30.18R HX  81
TAYLORVILLE    FAIR      76  61  59 N5        30.18S
$$

ILZ033-039-045-046-055>057-062-063-231700-
EAST-CENTRAL ILLINOIS

CITY           SKY/WX    TMP DP  RH WIND       PRES   REMARKS
CHAMPAIGN      FAIR      76  55  48 VRB3      30.19S
DANVILLE*      FAIR      70  57  65 N5        30.17S
RANTOUL*       FAIR      75  56  51 NE3       30.19S
MATTOON        FAIR      73  60  63 E5        30.17S
PARIS*         FAIR      74  59  59 CALM      30.19R
$$

ILZ079-100>102-231700-
SOUTHWEST ILLINOIS

CITY           SKY/WX    TMP DP  RH WIND       PRES   REMARKS
ALTON          MOSUNNY   79  66  65 SE7       30.17S HX  81
BELLEVILLE     SUNNY     78  64  61 NE7       30.15S HX  80
CAHOKIA*       SUNNY     80  62  54 VRB7      30.15S HX  81
SPARTA*        SUNNY     79  67  65 NE6       30.17S HX  81
$$

ILZ064>066-069>071-074>076-080>082-084>086-088>090-092>094-231700-
SOUTH-CENTRAL ILLINOIS

CITY           SKY/WX    TMP DP  RH WIND       PRES   REMARKS
CARBONDALE     FAIR      79  64  60 N9        30.15S HX  81
CAIRO*         FAIR      81  67  61 NE3       30.14R HX  84
EFFINGHAM*     FAIR      78  60  54 CALM      30.19R
MARION         MOSUNNY   79  63  57 N8        30.16S HX  80
MT. VERNON     FAIR      80  63  55 NE7       30.16S HX  81
CENTRALIA*     SUNNY     80  63  57 NE6       30.16R HX  81
SALEM*         FAIR      79  60  52 NE5       30.17R HX  80
METROPOLIS*    FAIR      83  65  53 N3        30.14S HX  85
$$

ILZ067-068-072-073-078-083-087-091-231700-
SOUTHEAST ILLINOIS

CITY           SKY/WX    TMP DP  RH WIND       PRES   REMARKS
LAWRENCEVILLE  FAIR      80  60  50 MISG      30.16R HX  81
FLORA*         FAIR      78  62  57 E3        30.17S
FAIRFIELD*     FAIR      78  61  57 CALM      30.15S
HARRISBURG*    FAIR      78  66  64 NE5       30.15S HX  80
ROBINSON*      FAIR      73  62  68 N5        30.17S
CARMI*         FAIR      80  62  53 N6        30.14S HX  81
$$

ABBREVIATIONS USED IN REMARKS
   TC - TEMPERATURE IN CELSIUS
  WCI - WIND CHILL INDEX
   HX - HEAT INDEX
  VSB - VISIBILITY
$$




USA.gov is the U.S. government's official web portal to all federal, state and local government web resources and services.